Location: Asheville, NC
(35.6000°N, 82.5500°W)
Time: 19:32:11
(UTC-04:00)

AO-85 - Pass Details

Date: 11 February 2018
Orbit: 499 x 787 km, 64.8° (Epoch: 24 May)

Event Time Altitude Azimuth Distance (km) Brightness Sun altitude
Rises 06:49:08 0° 221° (SW) 2,603 ? -7.1°
Reaches altitude 10° 06:51:17 10° 226° (SW) 1,744 ? -6.7°
Maximum altitude 06:55:04 50° 303° (WNW) 697 ? -6.0°
Drops below altitude 10° 06:59:08 10° 19° (NNE) 1,882 ? -5.1°
Sets 07:01:32 0° 25° (NNE) 2,834 ? -4.7°
